Location: Caltech
(34.1382°N, 118.1253°W)
Time: 11:12:45
(UTC-07:00)

Cosmos 2237 Rocket - Visible Passes

Search period start: 23 March 2017 00:00
Search period end: 02 April 2017 00:00
Orbit: 833 x 852 km, 71.0° (Epoch: 21 March)

Date Brightness Start Highest point End Pass type
(mag) Time Alt. Az. Time Alt. Az. Time Alt. Az.
23 Mar 2.9 05:39:10 10° S 05:44:40 55° ESE 05:50:13 10° NNE visible
24 Mar 3.0 05:24:21 10° S 05:29:50 52° ESE 05:35:21 10° NNE visible
25 Mar 3.1 05:09:34 10° S 05:15:00 49° ESE 05:20:29 10° NNE visible
26 Mar 3.1 04:54:55 11° S 05:00:11 47° ESE 05:05:37 10° NNE visible
27 Mar 3.2 04:41:31 18° S 04:45:21 44° ESE 04:50:44 10° NE visible
28 Mar 3.2 04:27:56 26° SSE 04:30:32 42° ESE 04:35:51 10° NE visible
28 Mar 3.4 06:10:14 10° WSW 06:14:42 24° WNW 06:19:14 10° N visible
29 Mar 3.3 04:14:11 33° SE 04:15:43 39° ESE 04:20:58 10° NE visible
29 Mar 3.3 05:56:03 13° WSW 05:59:50 25° WNW 06:04:29 10° N visible
30 Mar 3.3 04:00:19 36° ESE 04:00:54 37° ESE 04:06:05 10° NE visible
30 Mar 3.3 05:42:11 18° W 05:44:59 26° WNW 05:49:43 10° N visible
31 Mar 3.5 03:46:20 35° E 03:46:20 35° E 03:51:12 10° NE visible
31 Mar 3.2 05:28:11 23° W 05:30:07 27° WNW 05:34:56 10° N visible
01 Apr 3.7 03:32:16 31° E 03:32:16 31° E 03:36:18 10° NE visible
01 Apr 3.1 05:14:07 27° W 05:15:15 29° WNW 05:20:10 10° N visible
